[Iaude] MPEC S70: 2023 SW [a=0.93,e=0.37,i=14.6,H=26.8]

mpec at marsden.cfa.harvard.edu mpec at marsden.cfa.harvard.edu
Tue Sep 19 07:27:30 EDT 2023


M.P.E.C. 2023-S70                            Issued 2023 September 19, 11:26 UT

     The Minor Planet Electronic Circulars contain information on unusual
         minor planets, routine data on comets and natural satellites,
         and occasional editorial announcements.  They are published
    on behalf of Division F of the International Astronomical Union by the
          Minor Planet Center, Smithsonian Astrophysical Observatory,
                          Cambridge, MA 02138, U.S.A.
			  
             Prepared using the Tamkin Foundation Computer Network

                              MPC at CFA.HARVARD.EDU
            URL https://www.minorplanetcenter.net/    ISSN 1523-6714

                                    2023 SW                                     


Observations:
     K23S00W  C2023 09 13.33669100 00 19.462+33 41 39.26         22.59GVES070F52
     K23S00W  C2023 09 13.34892800 00 17.477+33 41 24.29         22.03GVES070F52
     K23S00W  C2023 09 13.36117700 00 15.473+33 41 08.51         20.40GVES070F52
     K23S00W  C2023 09 13.37339900 00 13.350+33 40 52.48         19.84GVES070F52
     K23S00W  C2023 09 16.56879123 50 19.744+31 09 37.20         20.71GVES070F52
     K23S00W  C2023 09 16.57143423 50 18.751+31 09 22.58         19.60GVES070F52
     K23S00W* C2023 09 18.30142023 38 25.919+27 27 42.85         19.77wXES070F52
     K23S00W  C2023 09 18.31222523 38 17.708+27 25 40.93         19.98wXES070F52
     K23S00W  C2023 09 18.32305123 38 09.349+27 23 37.41         19.93wXES070F52
     K23S00W  C2023 09 18.33387523 38 00.856+27 21 32.29         19.80wXES070F52
     K23S00W  C2023 09 18.39865623 37 07.692+27 08 30.04         19.61GVES070F52
     K23S00W  C2023 09 18.39946423 37 07.017+27 08 20.08         19.59GVES070F52
     K23S00W 1C2023 09 18.82177 23 31 55.61 +25 19 47.3          19.8 VXES070033
     K23S00W 1C2023 09 18.82208 23 31 55.31 +25 19 42.1          19.9 VXES070033
     K23S00W 1C2023 09 18.82239 23 31 55.01 +25 19 37.0          19.8 VXES070033
     K23S00W KB2023 09 18.90475 23 30 27.33 +24 56 37.8          19.5 GXES070M45
     K23S00W KB2023 09 18.90828 23 30 23.55 +24 55 32.9          19.6 GXES070M45
     K23S00W KB2023 09 18.91165 23 30 19.93 +24 54 31.4          19.2 GXES070M45
     K23S00W KB2023 09 18.97713023 29 19.43 +24 34 08.6                VES070I93
     K23S00W KB2023 09 18.97941523 29 16.87 +24 33 24.7          19.8 GVES070I93
     K23S00W KB2023 09 18.98135523 29 14.70 +24 32 46.9          20.2 GVES070I93
     K23S00W KB2023 09 18.98275723 29 13.49 +24 32 27.0          19.0 GXES070958
     K23S00W KB2023 09 18.98697923 29 08.77 +24 31 04.9          19.0 GXES070958
     K23S00W KB2023 09 18.99114623 29 04.09 +24 29 44.3                XES070958
     K23S00W KC2023 09 19.14738623 26 39.02 +23 35 51.2          19.1 VuES070H21
     K23S00W KC2023 09 19.14931623 26 36.63 +23 35 09.4          19.2 VuES070H21
     K23S00W KC2023 09 19.15124523 26 34.24 +23 34 27.3          19.3 VuES070H21
     K23S00W KC2023 09 19.15317423 26 31.83 +23 33 45.5                uES070H21
     K23S00W KC2023 09 19.15613123 26 28.15 +23 32 40.9          19.2 VuES070H21
     K23S00W 1C2023 09 19.21473523 25 25.396+23 11 22.42         18.97GVES070703
     K23S00W 1C2023 09 19.22009723 25 18.296+23 09 20.20         19.12GVES070703
     K23S00W 1C2023 09 19.22546223 25 11.222+23 07 15.89         19.41GVES070703
     K23S00W 1C2023 09 19.23087423 25 04.001+23 05 10.61         19.56GVES070703

Observer details:
033 Karl Schwarzschild Observatory, Tautenburg.  Observers S. Melnikov, C.
    Hogner, F. Ludwig, M. Hartmann, B. Stecklum.  Measurer B. Stecklum.
    1.34-m f/3 Schmidt + CCD.
703 Catalina Sky Survey.  Observer R. A. Kowalski.  Measurers E. J.
    Christensen, D. Fay, J. B. Fazekas, D. C. Fuls, A. R. Gibbs, A. D. Grauer,
    H. Groeller, J. K. Hogan, R. A. Kowalski, S. M. Larson, G. J. Leonard, D.
    Rankin, R. L. Seaman, A. Serrano, F. C. Shelly, K. W. Wierzchos.  0.68-m
    Schmidt + 10K CCD.
958 Observatoire de Dax.  Observer P. Dupouy.  0.50-m f/4.5 Reflector + CMO.
F52 Pan-STARRS 2, Haleakala.  Observers J. Bulger, K. Chambers, T. Dukes, T.
    Lowe, P. Minguez, A. Schultz, I. Smith.  Measurers S. Chastel, J.
    Fairlamb, M. Huber, Y. Ramanjooloo, R. Wainscoat, R. Weryk, K. Chambers,
    T. de Boer, J. Bulger, H. Gao, C.-C. Lin, T. Lowe, E. Magnier, P. Minguez,
    A. Schultz, I. Smith.  1.8-m Ritchey-Chretien + CCD.
H21 Astronomical Research Observatory, Westfield.  Observer R. Holmes.
    Measurers T. Linder, R. Holmes, L. Horn.  0.76-m f/3.0 astrograph + CCD.
I93 St Pardon de Conques.  Observer F. Losse.  0.40-m f/3.7 reflector + CMO.
M45 Starhopper Observatory, Sfantu Gheorghe.  Observer F. Ursache.  0.41-m
    f/7.5 reflector + CMO.

Orbital elements:
2023 SW                                                  Earth MOID = 0.0028 AU
Epoch 2023 Sept. 13.0 TT = JDT 2460200.5                Veres                   
M 266.95000              (2000.0)            P               Q                  
n   1.10773810     Peri.  304.28749     -0.52457465     -0.85128003             
a   0.9250772      Node   177.26698     +0.84013707     -0.51988501             
e   0.3651392      Incl.   14.56314     +0.13780837     -0.07100625             
P   0.89           H   26.85          G   0.15           U   7                  
Residuals in seconds of arc
230913 F52  0.1-  0.0     230918 F52  0.1+  0.1+    230918 958  0.6+  0.1+
230913 F52  0.1-  0.2+    230918 033  0.1+  0.1-    230918 958  1.2+  0.7+
230913 F52  0.3+  0.0     230918 033  0.1+  0.1-    230919 H21  0.2+  0.3+
230913 F52  0.2-  0.0     230918 033  0.0   0.1-    230919 H21  0.3+  0.3+
230916 F52  0.0   0.1+    230918 M45  0.2-  0.2+    230919 H21  0.3+  0.0
230916 F52  0.0   0.2-    230918 M45  0.2-  0.3-    230919 H21  0.2+  0.2+
230918 F52  0.1+  0.1+    230918 M45  0.2-  0.1-    230919 H21  0.3+  0.0
230918 F52  0.1+  0.0     230918 I93  0.1-  0.1+    230919 703  0.1+  0.4-
230918 F52  0.1+  0.0     230918 I93  0.0   0.2+    230919 703  0.4-  0.4+
230918 F52  0.0   0.1-    230918 I93  0.1+  0.1-    230919 703  0.1+  0.1-
230918 F52  0.0   0.1-    230918 958  0.1-  0.3+    230919 703  0.1+  0.3+

Ephemeris:
2023 SW                  a,e,i = 0.93, 0.37, 15                  q = 0.5873
Date    TT    R. A. (2000) Decl.     Delta      r    Elong.  Phase     V
2023 08 20    00 04 12.6 +33 28 32   0.2360  1.1620   124.5    45.9    25.8
...
2023 09 04    00 07 00.3 +34 57 15   0.1249  1.0988   133.8    41.5    24.2
...
2023 09 12    00 02 15.4 +34 10 14   0.06718 1.0590   140.0    37.7    22.6
...
2023 09 18    23 41 04.2 +28 22 44   0.02472 1.0265   149.4    29.9    20.2
2023 09 19    23 28 56.6 +24 29 45   0.01784 1.0208   153.5    26.1    19.3
2023 09 20    23 04 34.2 +15 42 07   0.01124 1.0151   159.9    19.8    18.1
...
2023 09 26    12 47 04.8 -44 12 04   0.03290 0.9795    44.1   134.5    25.6
...
2023 10 04    12 25 29.3 -39 26 20   0.08977 0.9289    35.5   141.3    28.5
...
2023 10 19    12 22 42.4 -35 27 58   0.2034  0.8271    30.3   142.6    30.2

M. P. C. Staff               (C) Copyright 2023 MPC           M.P.E.C. 2023-S70





More information about the Iaude mailing list